| time (UTC) | temp F | wind direction | speed MPH | gust MPH | rain 1hr in | rain 24hr in | rain mn in | humidity % | barometer mb |
| 20260503233042 | 71 | 274 | 4.0 | 16.0 | 0.00 | 0.00 | 0.00 | 52 | 1012.8 |
| 20260503231537 | 71 | 319 | 5.0 | 17.0 | 0.00 | 0.00 | 0.00 | 54 | 1013.0 |
| 20260503230038 | 70 | 288 | 6.0 | 14.0 | 0.00 | 0.00 | 0.00 | 53 | 1013.3 |
| 20260503224536 | 69 | 323 | 8.0 | 17.0 | 0.00 | 0.00 | 0.00 | 54 | 1013.4 |
| 20260503223044 | 70 | 190 | 5.0 | 17.0 | 0.00 | 0.00 | 0.00 | 54 | 1013.7 |
| 20260503221538 | 70 | 355 | 6.0 | 16.0 | 0.00 | 0.00 | 0.00 | 52 | 1013.9 |
| 20260503220039 | 70 | 313 | 9.0 | 18.0 | 0.00 | 0.00 | 0.00 | 53 | 1014.0 |
| 20260503214536 | 69 | 315 | 9.0 | 17.0 | 0.00 | 0.00 | 0.00 | 51 | 1014.1 |
| 20260503213037 | 69 | 331 | 10.0 | 18.0 | 0.00 | 0.00 | 0.00 | 58 | 1014.2 |
| 20260503211544 | 68 | 333 | 7.0 | 14.0 | 0.00 | 0.00 | 0.00 | 61 | 1014.1 |
| 20260503210041 | 67 | 321 | 6.0 | 13.0 | 0.00 | 0.00 | 0.00 | 62 | 1014.3 |
| 20260503204537 | 67 | 355 | 5.0 | 13.0 | 0.00 | 0.00 | 0.00 | 63 | 1014.4 |
| 20260503203041 | 67 | 340 | 7.0 | 13.0 | 0.00 | 0.00 | 0.00 | 63 | 1014.6 |
| 20260503201538 | 67 | 319 | 5.0 | 12.0 | 0.00 | 0.00 | 0.00 | 64 | 1014.7 |
| 20260503200037 | 68 | 302 | 3.0 | 11.0 | 0.00 | 0.00 | 0.00 | 62 | 1014.9 |
| 20260503194546 | 67 | 312 | 5.0 | 11.0 | 0.00 | 0.00 | 0.00 | 64 | 1015.0 |
| 20260503193046 | 66 | 5 | 3.0 | 9.0 | 0.00 | 0.00 | 0.00 | 68 | 1015.1 |
| 20260503191539 | 64 | 344 | 3.0 | 8.0 | 0.00 | 0.00 | 0.00 | 70 | 1015.4 |
| 20260503190037 | 64 | 352 | 3.0 | 11.0 | 0.00 | 0.00 | 0.00 | 71 | 1015.5 |
| 20260503184539 | 63 | 317 | 4.0 | 9.0 | 0.00 | 0.00 | 0.00 | 72 | 1015.6 |
| 20260503183037 | 62 | 350 | 5.0 | 9.0 | 0.00 | 0.00 | 0.00 | 74 | 1015.6 |
| 20260503181542 | 61 | 355 | 4.0 | 13.0 | 0.00 | 0.00 | 0.00 | 75 | 1015.7 |
| 20260503180051 | 62 | 329 | 6.0 | 12.0 | 0.00 | 0.00 | 0.00 | 74 | 1015.7 |
| 20260503174542 | 62 | 355 | 5.0 | 11.0 | 0.00 | 0.00 | 0.00 | 73 | 1015.8 |
| 20260503173046 | 62 | 322 | 5.0 | 11.0 | 0.00 | 0.00 | 0.00 | 72 | 1015.7 |
| 20260503171537 | 62 | 355 | 4.0 | 12.0 | 0.00 | 0.00 | 0.00 | 73 | 1015.7 |
| 20260503081541 | 62 | 0 | 0.0 | 4.0 | 0.00 | 0.00 | 0.00 | 56 | 1016.2 |
| 20260503071543 | 65 | 317 | 1.0 | 8.0 | 0.00 | 0.00 | 0.00 | 52 | 1016.1 |
| 20260503060106 | 69 | 346 | 6.0 | 12.0 | 0.00 | 0.00 | 0.00 | 45 | 1016.2 |
| 20260503054539 | 69 | 42 | 6.0 | 14.0 | 0.00 | 0.00 | 0.00 | 45 | 1016.1 |
| 20260503053038 | 69 | 309 | 5.0 | 13.0 | 0.00 | 0.00 | 0.00 | 46 | 1016.2 |
| 20260503051540 | 69 | 61 | 6.0 | 14.0 | 0.00 | 0.00 | 0.00 | 46 | 1016.2 |
| 20260503050043 | 69 | 11 | 5.0 | 12.0 | 0.00 | 0.00 | 0.00 | 46 | 1016.2 |
| 20260503044537 | 69 | 344 | 5.0 | 15.0 | 0.00 | 0.00 | 0.00 | 47 | 1016.1 |
| 20260503043047 | 69 | 360 | 6.0 | 17.0 | 0.00 | 0.00 | 0.00 | 47 | 1015.8 |
| 20260503041538 | 69 | 323 | 7.0 | 17.0 | 0.00 | 0.00 | 0.00 | 49 | 1015.7 |
| 20260503040055 | 68 | 25 | 8.0 | 17.0 | 0.00 | 0.00 | 0.00 | 50 | 1015.5 |
| 20260503034544 | 68 | 344 | 8.0 | 18.0 | 0.00 | 0.00 | 0.00 | 52 | 1015.5 |
| 20260503033038 | 66 | 5 | 5.0 | 12.0 | 0.00 | 0.00 | 0.00 | 56 | 1015.2 |
| 20260503031537 | 67 | 355 | 4.0 | 9.0 | 0.00 | 0.00 | 0.00 | 58 | 1015.3 |
| 20260503030037 | 67 | 12 | 3.0 | 9.0 | 0.00 | 0.00 | 0.00 | 58 | 1015.2 |
| 20260503024538 | 68 | 333 | 2.0 | 11.0 | 0.00 | 0.00 | 0.00 | 58 | 1015.1 |
| 20260503023052 | 68 | 5 | 3.0 | 9.0 | 0.00 | 0.00 | 0.00 | 58 | 1015.1 |
| 20260503021550 | 67 | 45 | 3.0 | 10.0 | 0.00 | 0.00 | 0.00 | 61 | 1015.1 |
| 20260503020047 | 68 | 355 | 3.0 | 10.0 | 0.00 | 0.00 | 0.00 | 59 | 1015.2 |
| 20260503014537 | 69 | 326 | 7.0 | 18.0 | 0.00 | 0.00 | 0.00 | 59 | 1015.4 |
| 20260503013037 | 69 | 5 | 8.0 | 16.0 | 0.00 | 0.00 | 0.00 | 57 | 1015.3 |
| 20260503011538 | 70 | 332 | 2.0 | 14.0 | 0.00 | 0.00 | 0.00 | 58 | 1015.5 |
| 20260503010036 | 69 | 352 | 4.0 | 12.0 | 0.00 | 0.00 | 0.00 | 57 | 1015.4 |
| 20260503004610 | 68 | 39 | 4.0 | 13.0 | 0.00 | 0.00 | 0.00 | 57 | 1015.4 |
| 20260503003056 | 68 | 32 | 3.0 | 13.0 | 0.00 | 0.00 | 0.00 | 60 | 1015.4 |
| 20260503001542 | 67 | 312 | 6.0 | 14.0 | 0.00 | 0.00 | 0.00 | 61 | 1015.4 |
| 20260503000040 | 67 | 317 | 5.0 | 15.0 | 0.00 | 0.00 | 0.00 | 64 | 1015.3 |
| 20260502234538 | 67 | 341 | 3.0 | 14.0 | 0.00 | 0.00 | 0.00 | 64 | 1015.4 |